Flag for Germany Weather past 2 weeks in Oberursel (Taunus), Hesse, Germany

Now
93 °F

Sunny.


Feels Like: 93 °F
Forecast: 73 / 91 °F
Wind: 3 mph from Southeast

Location: Frankfurt / M-Flughafen

Current Time: Jul 2, 2015 at 3:11:30 PM

Latest Report: Jul 2, 2015 at 2:00 PM


Visibility: 31 mi

Pressure: 30.09 "Hg

Humidity: 35%

Dew point: 62 °F

Location of Oberursel (Taunus)Location

Historic Weather in Oberursel (Taunus) — Graph

°F

Oberursel (Taunus) temperature yesterday

Maximum temperature yesterday: 90 °F (at 7:00 PM)
Minimum temperature yesterday: 67 °F (at 6:00 AM)
Average temperature yesterday: 79 °F

Past Weeks' High & Low Weather Summary

 TemperatureHumidityPressure
High93 °F (Jul 2, 2:00 PM)100% (Jun 22, 2:00 AM)30.23 "Hg (Jun 22, 2:00 AM)
Low49 °F (Jun 23, 6:00 AM)20% (Jun 17, 3:00 PM)29.70 "Hg (Jun 22, 11:00 PM)
Average64 °F68%30.08 "Hg
* Reported Jun 17 2:00 PM — Jul 2 2:00 PM, Oberursel (Taunus), Weather by CustomWeather, © 2015

Note: Actual official high and low records may vary slightly from our data, if they occured in-between our weather recording intervals... More about our weather records

Advertising

Oberursel (Taunus) weather history for previous 24 hours

 ConditionsComfort  
Time TempWeatherWind HumidityBarometerVisibility
2:00 PM
Thu, Jul 2
93 °FSunny.3 mph35%30.09 "Hg31 mi
1:00 PM90 °FSunny.3 mph36%30.10 "Hg31 mi
12:00 PM88 °FSunny.3 mph39%30.11 "Hg31 mi
11:00 AM85 °FPassing clouds.2 mph41%30.11 "Hg31 mi
10:00 AM83 °FPassing clouds.3 mph46%30.11 "Hg31 mi
9:00 AM79 °FPassing clouds.3 mph53%30.12 "Hg31 mi
8:00 AM76 °FPassing clouds.3 mph57%30.12 "Hg31 mi
7:00 AM72 °FPassing clouds.2 mph64%30.11 "Hg31 mi
6:00 AM71 °FPassing clouds.3 mph65%30.11 "Hg31 mi
4:00 AM73 °FMild.3 mph62%30.09 "HgN/A
3:00 AM74 °FClear.3 mph59%30.09 "Hg31 mi
2:00 AM76 °FClear.2 mph56%30.08 "Hg31 mi
1:00 AM77 °FPassing clouds.3 mph54%30.07 "Hg31 mi
12:00 AM77 °FPassing clouds.2 mph54%30.06 "Hg31 mi
11:00 PM
Wed, Jul 1
83 °FPassing clouds.2 mph40%30.06 "Hg31 mi
10:00 PM85 °FPassing clouds.2 mph36%30.04 "Hg31 mi
9:00 PM88 °FPassing clouds.2 mph31%30.03 "Hg31 mi
8:00 PM90 °FPassing clouds.2 mph28%30.02 "Hg31 mi
7:00 PM90 °FPassing clouds.2 mph28%30.02 "Hg31 mi
6:00 PM90 °FPassing clouds.3 mph28%30.02 "Hg31 mi
4:00 PM90 °FPassing clouds.3 mph28%30.04 "Hg31 mi
3:00 PM89 °FPassing clouds.3 mph27%30.05 "Hg31 mi
Weather by CustomWeather, © 2015

See weather overviewHow to use our weather pages